Time,TemperatureF,DewpointF,PressureIn,WindDirection,WindDirectionDegrees,WindSpeedMPH,WindSpeedGustMPH,Humidity,HourlyPrecipIn,Conditions,Clouds,dailyrainin,SolarRadiationWatts/m^2,SoftwareType,DateUTC
2013-09-23 00:11:00,43.0,36.0,-100.00,WSW,258,2.0,11.0,75,0.00,,,0.03,0.000000,,2013-09-23 07:11:00,
2013-09-23 00:22:00,43.0,36.0,-100.00,WSW,258,2.0,11.0,75,0.00,,,0.03,0.000000,,2013-09-23 07:22:00,
2013-09-23 00:32:00,43.0,36.0,-100.00,WSW,258,2.0,11.0,75,0.00,,,0.03,0.000000,,2013-09-23 07:32:00,
2013-09-23 00:42:00,43.0,36.0,-100.00,WSW,258,2.0,11.0,75,0.00,,,0.03,0.000000,,2013-09-23 07:42:00,
2013-09-23 01:11:00,42.0,35.0,-100.00,East,91,0.0,4.0,77,0.00,,,0.03,0.000000,,2013-09-23 08:11:00,
2013-09-23 01:22:00,42.0,35.0,-100.00,East,91,0.0,4.0,77,0.00,,,0.03,0.000000,,2013-09-23 08:22:00,
2013-09-23 01:32:00,42.0,35.0,-100.00,East,91,0.0,4.0,77,0.00,,,0.03,0.000000,,2013-09-23 08:32:00,
2013-09-23 01:42:00,42.0,35.0,-100.00,East,91,0.0,4.0,77,0.00,,,0.03,0.000000,,2013-09-23 08:42:00,
2013-09-23 02:11:00,44.0,36.0,-100.00,ESE,102,0.0,4.0,74,0.00,,,0.03,0.000000,,2013-09-23 09:11:00,
2013-09-23 02:21:00,44.0,36.0,-100.00,ESE,102,0.0,4.0,74,0.00,,,0.03,0.000000,,2013-09-23 09:21:00,
2013-09-23 02:33:00,44.0,36.0,-100.00,ESE,102,0.0,4.0,74,0.00,,,0.03,0.000000,,2013-09-23 09:33:00,
2013-09-23 02:42:00,44.0,36.0,-100.00,ESE,102,0.0,4.0,74,0.00,,,0.03,0.000000,,2013-09-23 09:42:00,
2013-09-23 03:13:00,42.0,35.0,-100.00,South,170,4.0,9.0,77,0.00,,,0.03,0.000000,,2013-09-23 10:13:00,
2013-09-23 03:23:00,42.0,35.0,-100.00,South,170,4.0,9.0,77,0.00,,,0.03,0.000000,,2013-09-23 10:23:00,
2013-09-23 03:33:00,42.0,35.0,-100.00,South,170,4.0,9.0,77,0.00,,,0.03,0.000000,,2013-09-23 10:33:00,
2013-09-23 03:42:00,42.0,35.0,-100.00,South,170,4.0,9.0,77,0.00,,,0.03,0.000000,,2013-09-23 10:42:00,
2013-09-23 04:12:00,43.0,35.0,-100.00,SE,144,3.0,6.0,74,0.00,,,0.03,0.000000,,2013-09-23 11:12:00,
2013-09-23 04:21:00,43.0,35.0,-100.00,SE,144,3.0,6.0,74,0.00,,,0.03,0.000000,,2013-09-23 11:21:00,
2013-09-23 04:33:00,43.0,35.0,-100.00,SE,144,3.0,6.0,74,0.00,,,0.03,0.000000,,2013-09-23 11:33:00,
2013-09-23 04:42:00,43.0,35.0,-100.00,SE,144,3.0,6.0,74,0.00,,,0.03,0.000000,,2013-09-23 11:42:00,
2013-09-23 05:11:00,43.0,36.0,-100.00,SSE,166,1.0,6.0,76,0.00,,,0.03,0.000000,,2013-09-23 12:11:00,
2013-09-23 05:22:00,43.0,36.0,-100.00,SSE,166,1.0,6.0,76,0.00,,,0.03,0.000000,,2013-09-23 12:22:00,
2013-09-23 05:32:00,43.0,36.0,-100.00,SSE,166,1.0,6.0,76,0.00,,,0.03,0.000000,,2013-09-23 12:32:00,
2013-09-23 05:42:00,43.0,36.0,-100.00,SSE,166,1.0,6.0,76,0.00,,,0.03,0.000000,,2013-09-23 12:42:00,
2013-09-23 06:11:00,43.0,36.0,-100.00,SSW,208,1.0,4.0,76,0.00,,,0.03,0.000000,,2013-09-23 13:11:00,
2013-09-23 06:21:00,43.0,36.0,-100.00,SSW,208,1.0,4.0,76,0.00,,,0.03,0.000000,,2013-09-23 13:21:00,
2013-09-23 06:32:00,43.0,36.0,-100.00,SSW,208,1.0,4.0,76,0.00,,,0.03,0.000000,,2013-09-23 13:32:00,
2013-09-23 06:42:00,43.0,36.0,-100.00,SSW,208,1.0,4.0,76,0.00,,,0.03,0.000000,,2013-09-23 13:42:00,
2013-09-23 07:11:00,46.0,37.0,-100.00,SSW,205,0.0,4.0,70,0.00,,,0.03,0.000000,,2013-09-23 14:11:00,
2013-09-23 07:22:00,46.0,37.0,-100.00,SSW,205,0.0,4.0,70,0.00,,,0.03,0.000000,,2013-09-23 14:22:00,
2013-09-23 07:32:00,46.0,37.0,-100.00,SSW,205,0.0,4.0,70,0.00,,,0.03,0.000000,,2013-09-23 14:32:00,
2013-09-23 07:42:00,46.0,37.0,-100.00,SSW,205,0.0,4.0,70,0.00,,,0.03,0.000000,,2013-09-23 14:42:00,
2013-09-23 08:11:00,45.0,37.0,-100.00,SSW,206,4.0,6.0,74,0.00,,,0.03,0.000000,,2013-09-23 15:11:00,
2013-09-23 08:21:00,45.0,37.0,-100.00,SSW,206,4.0,6.0,74,0.00,,,0.03,0.000000,,2013-09-23 15:21:00,
2013-09-23 08:33:00,45.0,37.0,-100.00,SSW,206,4.0,6.0,74,0.00,,,0.03,0.000000,,2013-09-23 15:33:00,
2013-09-23 08:43:00,45.0,37.0,-100.00,SSW,206,4.0,6.0,74,0.00,,,0.03,0.000000,,2013-09-23 15:43:00,
2013-09-23 09:12:00,52.0,41.0,-100.00,SSE,167,7.0,10.0,67,0.00,,,0.03,77.000000,,2013-09-23 16:12:00,
2013-09-23 09:23:00,52.0,41.0,-100.00,SSE,167,7.0,10.0,67,0.00,,,0.03,77.000000,,2013-09-23 16:23:00,
2013-09-23 09:33:00,52.0,41.0,-100.00,SSE,167,7.0,10.0,67,0.00,,,0.03,77.000000,,2013-09-23 16:33:00,
2013-09-23 09:43:00,52.0,41.0,-100.00,SSE,167,7.0,10.0,67,0.00,,,0.03,77.000000,,2013-09-23 16:43:00,
2013-09-23 10:12:00,55.0,41.0,-100.00,South,181,10.0,17.0,60,0.00,,,0.03,115.000000,,2013-09-23 17:12:00,
2013-09-23 10:24:00,55.0,41.0,-100.00,South,181,10.0,17.0,60,0.00,,,0.03,115.000000,,2013-09-23 17:24:00,
2013-09-23 10:34:00,55.0,41.0,-100.00,South,181,10.0,17.0,60,0.00,,,0.03,115.000000,,2013-09-23 17:34:00,
2013-09-23 10:42:00,55.0,41.0,-100.00,South,181,10.0,17.0,60,0.00,,,0.03,115.000000,,2013-09-23 17:42:00,
2013-09-23 11:12:00,56.0,39.0,-100.00,SSW,202,14.0,20.0,53,0.00,,,0.03,86.000000,,2013-09-23 18:12:00,
2013-09-23 11:21:00,56.0,39.0,-100.00,SSW,202,14.0,20.0,53,0.00,,,0.03,86.000000,,2013-09-23 18:21:00,
2013-09-23 11:33:00,56.0,39.0,-100.00,SSW,202,14.0,20.0,53,0.00,,,0.03,86.000000,,2013-09-23 18:33:00,
2013-09-23 11:42:00,56.0,39.0,-100.00,SSW,202,14.0,20.0,53,0.00,,,0.03,86.000000,,2013-09-23 18:42:00,
2013-09-23 12:12:00,58.0,39.0,-100.00,SSW,205,19.0,29.0,50,0.00,,,0.03,224.000000,,2013-09-23 19:12:00,
2013-09-23 12:22:00,58.0,39.0,-100.00,SSW,205,19.0,29.0,50,0.00,,,0.03,224.000000,,2013-09-23 19:22:00,
2013-09-23 12:32:00,58.0,39.0,-100.00,SSW,205,19.0,29.0,50,0.00,,,0.03,224.000000,,2013-09-23 19:32:00,
2013-09-23 12:42:00,58.0,39.0,-100.00,SSW,205,19.0,29.0,50,0.00,,,0.03,224.000000,,2013-09-23 19:42:00,
2013-09-23 13:12:00,59.0,39.0,-100.00,South,186,18.0,27.0,48,0.00,,,0.03,390.000000,,2013-09-23 20:12:00,
2013-09-23 13:21:00,59.0,39.0,-100.00,South,186,18.0,27.0,48,0.00,,,0.03,390.000000,,2013-09-23 20:21:00,
2013-09-23 13:32:00,59.0,39.0,-100.00,South,186,18.0,27.0,48,0.00,,,0.03,390.000000,,2013-09-23 20:32:00,
2013-09-23 13:42:00,59.0,39.0,-100.00,South,186,18.0,27.0,48,0.00,,,0.03,390.000000,,2013-09-23 20:42:00,
2013-09-23 14:11:00,58.0,37.0,-100.00,South,189,19.0,28.0,46,0.00,,,0.03,452.000000,,2013-09-23 21:11:00,
2013-09-23 14:23:00,58.0,37.0,-100.00,South,189,19.0,28.0,46,0.00,,,0.03,452.000000,,2013-09-23 21:23:00,
2013-09-23 14:34:00,58.0,37.0,-100.00,South,189,19.0,28.0,46,0.00,,,0.03,452.000000,,2013-09-23 21:34:00,
2013-09-23 14:44:00,58.0,37.0,-100.00,South,189,19.0,28.0,46,0.00,,,0.03,452.000000,,2013-09-23 21:44:00,
2013-09-23 15:13:00,60.0,39.0,-100.00,SSW,194,16.0,24.0,46,0.00,,,0.03,254.000000,,2013-09-23 22:13:00,
2013-09-23 15:23:00,60.0,39.0,-100.00,SSW,194,16.0,24.0,46,0.00,,,0.03,254.000000,,2013-09-23 22:23:00,
2013-09-23 15:33:00,60.0,39.0,-100.00,SSW,194,16.0,24.0,46,0.00,,,0.03,254.000000,,2013-09-23 22:33:00,
2013-09-23 15:43:00,60.0,39.0,-100.00,SSW,194,16.0,24.0,46,0.00,,,0.03,254.000000,,2013-09-23 22:43:00,
2013-09-23 16:12:00,59.0,38.0,-100.00,SW,217,15.0,24.0,46,0.00,,,0.01,83.000000,,2013-09-23 23:12:00,
2013-09-23 16:22:00,59.0,38.0,-100.00,SW,217,15.0,24.0,46,0.00,,,0.01,83.000000,,2013-09-23 23:22:00,
2013-09-23 16:34:00,59.0,38.0,-100.00,SW,217,15.0,24.0,46,0.00,,,0.01,83.000000,,2013-09-23 23:34:00,
2013-09-23 16:42:00,59.0,38.0,-100.00,SW,217,15.0,24.0,46,0.00,,,0.01,83.000000,,2013-09-23 23:42:00,
2013-09-23 17:11:00,59.0,39.0,-100.00,SW,233,13.0,25.0,47,0.00,,,0.00,34.000000,,2013-09-24 00:11:00,
2013-09-23 17:22:00,59.0,39.0,-100.00,SW,233,13.0,25.0,47,0.00,,,0.00,34.000000,,2013-09-24 00:22:00,
2013-09-23 17:32:00,59.0,39.0,-100.00,SW,233,13.0,25.0,47,0.00,,,0.00,34.000000,,2013-09-24 00:32:00,
2013-09-23 17:42:00,59.0,39.0,-100.00,SW,233,13.0,25.0,47,0.00,,,0.00,34.000000,,2013-09-24 00:42:00,
2013-09-23 18:12:00,57.0,38.0,-100.00,WSW,246,14.0,20.0,49,0.00,,,0.00,15.000000,,2013-09-24 01:12:00,
2013-09-23 18:21:00,57.0,38.0,-100.00,WSW,246,14.0,20.0,49,0.00,,,0.00,15.000000,,2013-09-24 01:21:00,
2013-09-23 18:32:00,57.0,38.0,-100.00,WSW,246,14.0,20.0,49,0.00,,,0.00,15.000000,,2013-09-24 01:32:00,
2013-09-23 18:43:00,57.0,38.0,-100.00,WSW,246,14.0,20.0,49,0.00,,,0.00,15.000000,,2013-09-24 01:43:00,
2013-09-23 19:12:00,54.0,41.0,-100.00,NW,309,3.0,18.0,61,0.00,,,0.00,0.000000,,2013-09-24 02:12:00,
2013-09-23 19:22:00,54.0,41.0,-100.00,NW,309,3.0,18.0,61,0.00,,,0.00,0.000000,,2013-09-24 02:22:00,
2013-09-23 19:32:00,54.0,41.0,-100.00,NW,309,3.0,18.0,61,0.00,,,0.00,0.000000,,2013-09-24 02:32:00,
2013-09-23 19:42:00,54.0,41.0,-100.00,NW,309,3.0,18.0,61,0.00,,,0.00,0.000000,,2013-09-24 02:42:00,
2013-09-23 20:12:00,51.0,40.0,-100.00,SW,222,5.0,8.0,65,0.00,,,0.00,0.000000,,2013-09-24 03:12:00,
2013-09-23 20:22:00,51.0,40.0,-100.00,SW,222,5.0,8.0,65,0.00,,,0.00,0.000000,,2013-09-24 03:22:00,
2013-09-23 20:35:00,51.0,40.0,-100.00,SW,222,5.0,8.0,65,0.00,,,0.00,0.000000,,2013-09-24 03:35:00,
2013-09-23 20:44:00,51.0,40.0,-100.00,SW,222,5.0,8.0,65,0.00,,,0.00,0.000000,,2013-09-24 03:44:00,
2013-09-23 21:14:00,47.0,38.0,-100.00,West,262,2.0,8.0,72,0.00,,,0.00,0.000000,,2013-09-24 04:14:00,
2013-09-23 21:24:00,47.0,38.0,-100.00,West,262,2.0,8.0,72,0.00,,,0.00,0.000000,,2013-09-24 04:24:00,
2013-09-23 21:33:00,47.0,38.0,-100.00,West,262,2.0,8.0,72,0.00,,,0.00,0.000000,,2013-09-24 04:33:00,
2013-09-23 21:44:00,47.0,38.0,-100.00,West,262,2.0,8.0,72,0.00,,,0.00,0.000000,,2013-09-24 04:44:00,
2013-09-23 22:13:00,45.0,38.0,-100.00,WNW,297,5.0,7.0,76,0.00,,,0.00,0.000000,,2013-09-24 05:13:00,
2013-09-23 22:22:00,45.0,38.0,-100.00,WNW,297,5.0,7.0,76,0.00,,,0.00,0.000000,,2013-09-24 05:22:00,
2013-09-23 22:34:00,45.0,38.0,-100.00,WNW,297,5.0,7.0,76,0.00,,,0.00,0.000000,,2013-09-24 05:34:00,
2013-09-23 22:43:00,45.0,38.0,-100.00,WNW,297,5.0,7.0,76,0.00,,,0.00,0.000000,,2013-09-24 05:43:00,
2013-09-23 23:12:00,45.0,37.0,-100.00,NNW,339,1.0,6.0,74,0.00,,,0.00,0.000000,,2013-09-24 06:12:00,
2013-09-23 23:22:00,45.0,37.0,-100.00,NNW,339,1.0,6.0,74,0.00,,,0.00,0.000000,,2013-09-24 06:22:00,
2013-09-23 23:32:00,45.0,37.0,-100.00,NNW,339,1.0,6.0,74,0.00,,,0.00,0.000000,,2013-09-24 06:32:00,
2013-09-23 23:42:00,45.0,37.0,-100.00,NNW,339,1.0,6.0,74,0.00,,,0.00,0.000000,,2013-09-24 06:42:00,